Starlink 31098

operational
NORAD ID: 58716 Int'l Des: 2024-002 Owner: SPXS Country: US Constellation: starlink
LEOCIRCULAR

Starlink 31098について

説明を読み込み中...

リアルタイム位置

3D地球を読み込み中...

次回通過

高度履歴

Altitude vs Time

uPlot chart will show altitude changes over time

軌道要素

1 58716U 24002M 25352.42272711 .00000389 00000-0 25254-4 0 9990
2 58716 53.1608 247.3647 0001439 92.5681 267.5485 15.30196783109575
Epoch: Dec 18, 2025 • Age: 10 hours

現在のステータス

高度 489.1 km
速度 7.62 km/s
衛星直下点 -39.86°S, 67.64°E
打ち上げ日 Jan 3, 2024
運用期間 1.9 years
タイプ internet

技術仕様

分類 Payload
質量 730.00 kg
乾燥質量 700.00 kg
総質量 730.00 kg
長さ 0.30 m
直径 4.10 m
スパン 29.00 m
形状 Box + pan
製造者 SPXS
バスタイプ Starlink V2M
フェーズステータス In Orbit
所有者/国 SPXS/US

大規模コンステレーション

Loading constellations...